Regional Weather Roundup
Issued by NWS

Home | Current Version | Previous Version | Graphics & Text | Print | Product List | Glossary On
Versions: 1 2 3 4 5 6 7 8 9 10 11 12 13 14 15 16 17 18 19 20 21 22 23 24 25 26 27 28 29 30 31 32 33 34 35 36 37 38 39 40 41 42 43 44 45 46 47 48 49 50
982
ASUS43 KBIS 080610
RWRND

NORTH DAKOTA REGIONAL WEATHER ROUNDUP
NATIONAL WEATHER SERVICE BISMARCK ND
1200 AM CST MON FEB 08 2016

NOTE: "FAIR" INDICATES FEW OR NO CLOUDS BELOW 12,000 FEET WITH NO
SIGNIFICANT WEATHER AND/OR OBSTRUCTIONS TO VISIBILITY.


NDZ001>003-009>011-017-080700-
NORTHWEST NORTH DAKOTA

CITY           SKY/WX    TMP DP  RH WIND       PRES   REMARKS
WILLISTON      CLEAR     27  19  72 NW21G28   30.30S WCI  13
6HR MIN TEMP:  27; 6HR MAX TEMP:  34;

MINOT          FLURRIES  29  16  58 NW23G39   30.18R WCI  15
MINOT AFB      PTCLDY    26  20  76 NW24G31   30.17R WCI  11
$$

NDZ018>021-031>035-040>046-080700-
SOUTHWEST NORTH DAKOTA

CITY           SKY/WX    TMP DP  RH WIND       PRES   REMARKS
BISMARCK       CLEAR     30  17  58 NW28G36   30.17R WCI  15
6HR MIN TEMP:  30; 6HR MAX TEMP:  36;

DICKINSON      CLEAR     25  14  63 NW17      30.25R WCI  12
GARRISON         N/A     25  18  74 NW26G37   30.19R WCI   9
6HR MIN TEMP:  25; 6HR MAX TEMP:  32;

HETTINGER ARPT CLEAR     26  15  63 NW18G28   30.26R WCI  13
$$

NDZ004>008-012>016-024-026-027-054-080700-
NORTHEAST NORTH DAKOTA

CITY           SKY/WX    TMP DP  RH WIND       PRES   REMARKS
GRAND FORKS    LGT SNOW  15   9  76 N28G36    30.05S BLWGSNOWWCI  -5
GRND FRKS AFB  FLURRIES  14   9  79 N20G31    30.06S WCI  -3
DEVILS LAKE    FLURRIES  19  14  81 N24G31    30.08R WCI   2
$$

NDZ022-023-025-028>030-036>039-047>053-080700-
SOUTHEAST NORTH DAKOTA

CITY           SKY/WX    TMP DP  RH WIND       PRES   REMARKS
FARGO          SNOW      14  10  84 N31G39    30.04R VSB 1/2 WCI  -7
6HR MIN TEMP:  14; 6HR MAX TEMP:  19; 6HR PCP: TRACE;

JAMESTOWN      CLOUDY    22  15  75 N29G38    30.05S WCI   4
$$





USA.gov is the U.S. government's official web portal to all federal, state and local government web resources and services.